Time,TemperatureF,DewpointF,PressureIn,WindDirection,WindDirectionDegrees,WindSpeedMPH,WindSpeedGustMPH,Humidity,HourlyPrecipIn,Conditions,Clouds,dailyrainin,SoftwareType,DateUTC
2013-05-29 00:10:00,75.7,59.0,29.94,SSW,212,0.0,3.0,57,0.00,,,0.00,weatherlink.com 1.10,2013-05-29 04:10:00,
2013-05-29 00:25:00,75.1,60.0,29.95,WSW,239,0.0,3.0,59,0.00,,,0.00,weatherlink.com 1.10,2013-05-29 04:25:00,
2013-05-29 00:40:00,74.4,59.0,29.95,WSW,256,1.0,4.0,60,0.00,,,0.00,weatherlink.com 1.10,2013-05-29 04:40:00,
2013-05-29 00:55:00,74.4,59.0,29.96,West,275,0.0,4.0,60,0.00,,,0.00,weatherlink.com 1.10,2013-05-29 04:55:00,
2013-05-29 01:10:00,73.8,59.0,29.97,SW,218,0.0,2.0,61,0.00,,,0.00,weatherlink.com 1.10,2013-05-29 05:10:00,
2013-05-29 01:25:00,72.8,60.0,29.97,SSW,207,0.0,3.0,64,0.00,,,0.00,weatherlink.com 1.10,2013-05-29 05:25:00,
2013-05-29 01:41:00,71.4,59.0,29.97,SSW,198,0.0,0.0,66,0.00,,,0.00,weatherlink.com 1.10,2013-05-29 05:41:00,
2013-05-29 01:56:00,71.3,59.0,29.97,SSE,160,0.0,1.0,66,0.00,,,0.00,weatherlink.com 1.10,2013-05-29 05:56:00,
2013-05-29 02:11:00,71.0,59.0,29.98,SW,232,0.0,2.0,67,0.00,,,0.00,weatherlink.com 1.10,2013-05-29 06:11:00,
2013-05-29 02:26:00,70.2,60.0,29.98,SW,226,0.0,0.0,70,0.00,,,0.00,weatherlink.com 1.10,2013-05-29 06:26:00,
2013-05-29 02:41:00,68.8,60.0,29.99,SW,226,0.0,0.0,74,0.00,,,0.00,weatherlink.com 1.10,2013-05-29 06:41:00,
2013-05-29 02:56:00,67.7,60.0,29.99,SW,226,0.0,0.0,76,0.00,,,0.00,weatherlink.com 1.10,2013-05-29 06:56:00,
2013-05-29 03:11:00,67.0,60.0,29.99,SW,226,0.0,0.0,77,0.00,,,0.00,weatherlink.com 1.10,2013-05-29 07:11:00,
2013-05-29 03:26:00,66.4,60.0,29.99,SW,226,0.0,0.0,79,0.00,,,0.00,weatherlink.com 1.10,2013-05-29 07:26:00,
2013-05-29 03:41:00,66.0,60.0,30.00,SW,226,0.0,0.0,80,0.00,,,0.00,weatherlink.com 1.10,2013-05-29 07:41:00,
2013-05-29 03:56:00,65.4,60.0,30.00,SW,226,0.0,0.0,82,0.00,,,0.00,weatherlink.com 1.10,2013-05-29 07:56:00,
2013-05-29 04:11:00,65.7,60.0,30.00,SW,217,0.0,1.0,82,0.00,,,0.00,weatherlink.com 1.10,2013-05-29 08:11:00,
2013-05-29 04:26:00,66.2,60.0,30.00,SW,215,0.0,0.0,81,0.00,,,0.00,weatherlink.com 1.10,2013-05-29 08:26:00,
2013-05-29 04:41:00,66.3,60.0,30.01,SSW,211,0.0,1.0,80,0.00,,,0.00,weatherlink.com 1.10,2013-05-29 08:41:00,
2013-05-29 04:56:00,66.2,60.0,30.01,SSW,211,0.0,0.0,81,0.00,,,0.00,weatherlink.com 1.10,2013-05-29 08:56:00,
2013-05-29 05:11:00,66.0,60.0,30.01,SSW,211,0.0,0.0,82,0.00,,,0.00,weatherlink.com 1.10,2013-05-29 09:11:00,
2013-05-29 05:26:00,66.4,61.0,30.01,WSW,245,1.0,3.0,82,0.00,,,0.00,weatherlink.com 1.10,2013-05-29 09:26:00,
2013-05-29 05:41:00,66.7,61.0,30.01,South,186,0.0,1.0,81,0.00,,,0.00,weatherlink.com 1.10,2013-05-29 09:41:00,
2013-05-29 05:56:00,66.9,61.0,30.02,SSW,198,0.0,1.0,81,0.00,,,0.00,weatherlink.com 1.10,2013-05-29 09:56:00,
2013-05-29 06:11:00,67.1,61.0,30.02,SSW,196,0.0,3.0,81,0.00,,,0.00,weatherlink.com 1.10,2013-05-29 10:11:00,
2013-05-29 06:26:00,67.9,61.0,30.01,South,188,3.0,5.0,79,0.00,,,0.00,weatherlink.com 1.10,2013-05-29 10:26:00,
2013-05-29 06:41:00,69.0,62.0,30.01,SW,215,0.0,6.0,77,0.00,,,0.00,weatherlink.com 1.10,2013-05-29 10:41:00,
2013-05-29 06:56:00,69.5,62.0,30.02,South,172,0.0,4.0,76,0.00,,,0.00,weatherlink.com 1.10,2013-05-29 10:56:00,
2013-05-29 07:11:00,70.0,62.0,30.02,WSW,253,3.0,5.0,76,0.00,,,0.00,weatherlink.com 1.10,2013-05-29 11:11:00,
2013-05-29 07:26:00,70.5,62.0,30.03,SW,215,0.0,3.0,75,0.00,,,0.00,weatherlink.com 1.10,2013-05-29 11:26:00,
2013-05-29 07:41:00,70.9,63.0,30.04,SSW,197,0.0,2.0,75,0.00,,,0.00,weatherlink.com 1.10,2013-05-29 11:41:00,
2013-05-29 07:56:00,71.3,63.0,30.04,West,276,1.0,4.0,74,0.00,,,0.00,weatherlink.com 1.10,2013-05-29 11:56:00,
2013-05-29 08:11:00,72.2,63.0,30.04,SSE,162,2.0,3.0,73,0.00,,,0.00,weatherlink.com 1.10,2013-05-29 12:11:00,
2013-05-29 08:26:00,72.7,63.0,30.05,SSW,204,1.0,4.0,72,0.00,,,0.00,weatherlink.com 1.10,2013-05-29 12:26:00,
2013-05-29 08:41:00,72.8,63.0,30.04,West,274,1.0,6.0,72,0.00,,,0.00,weatherlink.com 1.10,2013-05-29 12:41:00,
2013-05-29 08:56:00,73.2,63.0,30.05,WNW,290,1.0,5.0,71,0.00,,,0.00,weatherlink.com 1.10,2013-05-29 12:56:00,
2013-05-29 09:11:00,73.8,64.0,30.05,SW,219,0.0,6.0,71,0.00,,,0.00,weatherlink.com 1.10,2013-05-29 13:11:00,
2013-05-29 09:26:00,74.9,64.0,30.05,WNW,293,3.0,7.0,69,0.00,,,0.00,weatherlink.com 1.10,2013-05-29 13:26:00,
2013-05-29 09:41:00,76.0,65.0,30.05,WSW,257,3.0,9.0,68,0.00,,,0.00,weatherlink.com 1.10,2013-05-29 13:41:00,
2013-05-29 09:56:00,77.4,65.0,30.05,West,278,3.0,7.0,66,0.00,,,0.00,weatherlink.com 1.10,2013-05-29 13:56:00,
2013-05-29 10:11:00,78.0,65.0,30.05,WSW,252,3.0,10.0,64,0.00,,,0.00,weatherlink.com 1.10,2013-05-29 14:11:00,
2013-05-29 10:26:00,78.6,65.0,30.05,NW,318,5.0,8.0,63,0.00,,,0.00,weatherlink.com 1.10,2013-05-29 14:26:00,
2013-05-29 10:41:00,78.8,65.0,30.04,SSW,205,1.0,10.0,62,0.00,,,0.00,weatherlink.com 1.10,2013-05-29 14:41:00,
2013-05-29 10:56:00,80.9,66.0,30.04,SW,234,2.0,8.0,60,0.00,,,0.00,weatherlink.com 1.10,2013-05-29 14:56:00,
2013-05-29 11:11:00,81.6,65.0,30.04,WNW,289,3.0,10.0,58,0.00,,,0.00,weatherlink.com 1.10,2013-05-29 15:11:00,
2013-05-29 11:26:00,81.5,65.0,30.04,WSW,248,3.0,9.0,57,0.00,,,0.00,weatherlink.com 1.10,2013-05-29 15:26:00,
2013-05-29 11:41:00,82.7,65.0,30.04,SSE,153,2.0,9.0,56,0.00,,,0.00,weatherlink.com 1.10,2013-05-29 15:41:00,
2013-05-29 11:56:00,82.5,63.0,30.04,WNW,294,4.0,12.0,52,0.00,,,0.00,weatherlink.com 1.10,2013-05-29 15:56:00,
2013-05-29 12:11:00,83.6,64.0,30.04,WSW,252,3.0,10.0,51,0.00,,,0.00,weatherlink.com 1.10,2013-05-29 16:11:00,
2013-05-29 12:27:00,84.2,64.0,30.04,WNW,301,3.0,10.0,50,0.00,,,0.00,weatherlink.com 1.10,2013-05-29 16:27:00,
2013-05-29 12:43:00,84.3,64.0,30.04,NW,307,7.0,14.0,50,0.00,,,0.00,weatherlink.com 1.10,2013-05-29 16:43:00,
2013-05-29 12:57:00,84.8,63.0,30.03,ENE,61,2.0,9.0,48,0.00,,,0.00,weatherlink.com 1.10,2013-05-29 16:57:00,
2013-05-29 13:12:00,84.4,63.0,30.02,West,274,2.0,7.0,49,0.00,,,0.00,weatherlink.com 1.10,2013-05-29 17:12:00,
2013-05-29 13:27:00,86.3,64.0,30.02,SW,222,8.0,8.0,48,0.00,,,0.00,weatherlink.com 1.10,2013-05-29 17:27:00,
2013-05-29 13:42:00,86.8,64.0,30.01,WSW,248,2.0,8.0,47,0.00,,,0.00,weatherlink.com 1.10,2013-05-29 17:42:00,
2013-05-29 13:57:00,85.9,64.0,30.01,SW,233,2.0,14.0,48,0.00,,,0.00,weatherlink.com 1.10,2013-05-29 17:57:00,
2013-05-29 14:31:00,88.2,64.0,30.00,SW,215,4.0,5.0,45,0.00,,,0.00,weatherlink.com 1.10,2013-05-29 18:31:00,
2013-05-29 14:45:00,88.2,64.0,30.00,WNW,293,3.0,10.0,44,0.00,,,0.00,weatherlink.com 1.10,2013-05-29 18:45:00,
2013-05-29 15:01:00,87.6,64.0,30.00,SSW,201,4.0,9.0,45,0.00,,,0.00,weatherlink.com 1.10,2013-05-29 19:01:00,
2013-05-29 15:11:00,87.7,64.0,30.00,NW,314,2.0,8.0,45,0.00,,,0.00,weatherlink.com 1.10,2013-05-29 19:11:00,
2013-05-29 15:26:00,88.3,64.0,30.00,West,264,1.0,12.0,45,0.00,,,0.00,weatherlink.com 1.10,2013-05-29 19:26:00,
2013-05-29 15:41:00,89.2,64.0,30.00,SE,145,2.0,7.0,43,0.00,,,0.00,weatherlink.com 1.10,2013-05-29 19:41:00,
2013-05-29 15:56:00,89.2,64.0,29.99,SSW,210,4.0,7.0,43,0.00,,,0.00,weatherlink.com 1.10,2013-05-29 19:56:00,
2013-05-29 16:11:00,88.9,63.0,29.99,SSE,158,4.0,9.0,42,0.00,,,0.00,weatherlink.com 1.10,2013-05-29 20:11:00,
2013-05-29 16:42:00,88.1,63.0,29.98,WNW,303,3.0,6.0,43,0.00,,,0.00,weatherlink.com 1.10,2013-05-29 20:42:00,
2013-05-29 16:57:00,88.0,63.0,29.98,WSW,256,4.0,6.0,43,0.00,,,0.00,weatherlink.com 1.10,2013-05-29 20:57:00,
2013-05-29 17:12:00,87.2,63.0,29.97,WNW,294,2.0,8.0,45,0.00,,,0.00,weatherlink.com 1.10,2013-05-29 21:12:00,
2013-05-29 17:27:00,87.9,63.0,29.98,West,267,1.0,10.0,44,0.00,,,0.00,weatherlink.com 1.10,2013-05-29 21:27:00,
2013-05-29 17:42:00,87.9,64.0,29.96,WSW,249,2.0,7.0,45,0.00,,,0.00,weatherlink.com 1.10,2013-05-29 21:42:00,
2013-05-29 17:57:00,87.8,65.0,29.97,WNW,285,3.0,8.0,46,0.00,,,0.00,weatherlink.com 1.10,2013-05-29 21:57:00,
2013-05-29 18:12:00,87.2,65.0,29.97,SSE,150,1.0,9.0,47,0.00,,,0.00,weatherlink.com 1.10,2013-05-29 22:12:00,
2013-05-29 18:27:00,87.3,65.0,29.97,SE,142,2.0,9.0,48,0.00,,,0.00,weatherlink.com 1.10,2013-05-29 22:27:00,
2013-05-29 18:42:00,86.5,65.0,29.96,South,173,1.0,6.0,49,0.00,,,0.00,weatherlink.com 1.10,2013-05-29 22:42:00,
2013-05-29 18:57:00,87.2,66.0,29.96,SSE,162,0.0,2.0,50,0.00,,,0.00,weatherlink.com 1.10,2013-05-29 22:57:00,
2013-05-29 19:12:00,87.0,66.0,29.96,SSE,160,1.0,5.0,50,0.00,,,0.00,weatherlink.com 1.10,2013-05-29 23:12:00,
2013-05-29 19:42:00,85.6,66.0,29.96,SW,236,3.0,7.0,52,0.00,,,0.00,weatherlink.com 1.10,2013-05-29 23:42:00,
2013-05-29 20:12:00,84.0,66.0,29.96,WNW,282,0.0,3.0,55,0.00,,,0.00,weatherlink.com 1.10,2013-05-30 00:12:00,
2013-05-29 20:42:00,82.3,66.0,29.96,SW,229,0.0,1.0,59,0.00,,,0.00,weatherlink.com 1.10,2013-05-30 00:42:00,
2013-05-29 20:57:00,81.4,67.0,29.95,WSW,239,0.0,2.0,61,0.00,,,0.00,weatherlink.com 1.10,2013-05-30 00:57:00,
2013-05-29 21:12:00,80.2,66.0,29.95,SW,235,0.0,0.0,63,0.00,,,0.00,weatherlink.com 1.10,2013-05-30 01:12:00,
2013-05-29 21:29:00,78.8,66.0,29.96,SSE,162,0.0,0.0,66,0.00,,,0.00,weatherlink.com 1.10,2013-05-30 01:29:00,
2013-05-29 21:42:00,77.9,66.0,29.96,SSE,162,0.0,0.0,67,0.00,,,0.00,weatherlink.com 1.10,2013-05-30 01:42:00,
2013-05-29 21:57:00,77.4,66.0,29.96,SSE,162,0.0,1.0,68,0.00,,,0.00,weatherlink.com 1.10,2013-05-30 01:57:00,
2013-05-29 22:27:00,76.7,66.0,29.97,WSW,243,0.0,1.0,70,0.00,,,0.00,weatherlink.com 1.10,2013-05-30 02:27:00,
2013-05-29 22:42:00,76.2,66.0,29.97,WSW,243,0.0,0.0,71,0.00,,,0.00,weatherlink.com 1.10,2013-05-30 02:42:00,
2013-05-29 22:57:00,75.7,66.0,29.98,WSW,244,0.0,0.0,73,0.00,,,0.00,weatherlink.com 1.10,2013-05-30 02:57:00,
2013-05-29 23:13:00,75.1,66.0,29.98,WSW,243,0.0,1.0,74,0.00,,,0.00,weatherlink.com 1.10,2013-05-30 03:13:00,
2013-05-29 23:28:00,74.6,66.0,29.98,SSE,163,0.0,0.0,75,0.00,,,0.00,weatherlink.com 1.10,2013-05-30 03:28:00,
2013-05-29 23:58:00,73.7,66.0,29.98,SSE,163,0.0,0.0,77,0.00,,,0.00,weatherlink.com 1.10,2013-05-30 03:58:00,